Flag for U.S.A. Weather past 2 weeks in Santa Rosa, California, U.S.A.

Now
72 °F

Scattered clouds.


Feels Like: 77 °F
Forecast: 51 / 70 °F
Wind: 9 mph from South

Location: Santa Rosa Sonoma County Airport

Current Time: May 22, 2015 at 3:22:09 PM

Latest Report: May 22, 2015 at 2:53 PM


Visibility: 10 mi

Pressure: 29.93 "Hg

Humidity: 52%

Dew point: 53 °F

Location of Santa RosaLocation

Historic Weather in Santa Rosa — Graph

°F

Santa Rosa temperature yesterday

Maximum temperature yesterday: 69 °F (at 2:53 PM)
Minimum temperature yesterday: 53 °F (at 6:53 AM)
Average temperature yesterday: 59 °F

Past Weeks' High & Low Weather Summary

 TemperatureHumidityPressure
High76 °F (May 7, 4:53 PM)100% (May 11, 5:01 AM)30.09 "Hg (May 11, 5:01 AM)
Low41 °F (May 11, 5:01 AM)18% (May 7, 3:53 PM)29.67 "Hg (May 7, 4:53 PM)
Average57 °F70%29.91 "Hg
* Reported May 7 1:53 PM — May 22 1:53 PM, Santa Rosa, Weather by CustomWeather, © 2015

Note: Actual official high and low records may vary slightly from our data, if they occured in-between our weather recording intervals... More about our weather records

Advertising

Santa Rosa weather history for previous 24 hours

 ConditionsComfort  
Time TempWeatherWind HumidityBarometerVisibility
1:53 PM
Fri, May 22
72 °FScattered clouds.10 mph52%29.94 "Hg10 mi
12:53 PM71 °FScattered clouds.5 mph51%29.96 "Hg10 mi
11:53 AM67 °FScattered clouds.6 mph57%29.96 "Hg10 mi
10:53 AM63 °FPartly sunny.6 mph63%29.97 "Hg10 mi
9:53 AM60 °FOvercast.3 mph69%29.97 "Hg10 mi
8:53 AM58 °FOvercast.No wind75%29.97 "Hg10 mi
7:53 AM54 °FOvercast.3 mph83%29.96 "Hg10 mi
6:53 AM52 °FOvercast.No wind89%29.96 "Hg10 mi
5:53 AM51 °FPassing clouds.3 mph92%29.95 "Hg10 mi
5:03 AM52 °FPassing clouds.No wind88%29.96 "Hg10 mi
4:53 AM52 °FPassing clouds.No wind93%29.94 "Hg10 mi
3:53 AM53 °FMostly cloudy.No wind89%29.93 "Hg10 mi
2:53 AM52 °FPartly cloudy.No wind93%29.94 "Hg10 mi
1:53 AM53 °FOvercast.3 mph89%29.93 "Hg10 mi
12:53 AM54 °FPassing clouds.5 mph86%29.93 "Hg10 mi
11:53 PM
Thu, May 21
55 °FOvercast.7 mph83%29.93 "Hg10 mi
10:53 PM56 °FMostly cloudy.6 mph81%29.93 "Hg10 mi
9:53 PM57 °FOvercast.6 mph81%29.92 "Hg10 mi
8:53 PM57 °FBroken clouds.6 mph78%29.91 "Hg10 mi
7:53 PM59 °FPartly sunny.7 mph72%29.90 "Hg10 mi
6:53 PM60 °FBroken clouds.10 mph72%29.89 "Hg10 mi
5:53 PM61 °FBroken clouds.9 mph70%29.88 "Hg10 mi
4:53 PM63 °FBroken clouds.12 mph65%29.87 "Hg10 mi
3:53 PM67 °FScattered clouds.12 mph57%29.86 "Hg10 mi
Weather by CustomWeather, © 2015

See weather overviewHow to use our weather pages